Weather History for KODX - October, 2012

Change the Weather History Date:

Sunday, October 28, 2012

  Actual Average Record
Temperature  
Mean Temperature 36 °F 45 °F  
Max Temperature 55 °F 57 °F 82 °F (2001)
Min Temperature 17 °F 32 °F 17 °F (2012)
Degree Days  
Heating Degree Days 29 20  
Month to date heating degree days 498 420  
Since 1 July heating degree days 640 557  
Cooling Degree Days 0 0  
Month to date cooling degree days 0 6  
Year to date cooling degree days 1220 844  
Moisture  
Dew Point 24 °F    
Average Humidity 66    
Maximum Humidity 96    
Minimum Humidity 35    
Precipitation  
Precipitation 0.00 in 0.05 in 0.61 in (1929)
Month to date precipitation 0.20 1.80  
Year to date precipitation 11.25 23.15  
Sea Level Pressure  
Sea Level Pressure 30.19 in    
Wind  
Wind Speed 7 mph (SSE)    
Max Wind Speed 18 mph    
Max Gust Speed 24 mph    
Visibility 9 miles    
Events      
T = Trace of Precipitation, MM = Missing Value Source: NWS Daily Summary

Daily Weather History Graph

Daily Weather History Graph

Search for Another Location

Airport or City:

Trip Planner

Search our weather history database for the weather conditions in past years. The results will help you decide how hot, cold, wet, or windy it might be!

Date:

Astronomy

Oct. 28, 2012 Rise Set
Actual Time 8:03 AM CDT 6:34 PM CDT
Civil Twilight 7:34 AM CDT 7:03 PM CDT
Nautical Twilight 7:02 AM CDT 7:36 PM CDT
Astronomical Twilight 6:30 AM CDT 8:08 PM CDT
Moon 5:53 PM CDT (10/28) 6:57 AM CDT (10/28)
Length of Visible Light 11h 28m
Length of Day
10h 31m
Waxing Gibbous, 99% of the Moon is Illuminated
Oct 28
Waxing Gibbous
Oct 29
Full
Nov 6
Last Quarter
Nov 13
New
Nov 20
First Quarter

Hourly Weather History & Observations

Time (CDT) Temp. Windchill Dew Point Humidity Pressure Visibility Wind Dir Wind Speed Gust Speed Precip Events Conditions
12:53 AM 27.0 °F 21.6 °F 24.1 °F 89% 30.27 in 10.0 mi ESE 4.6 mph - N/A   Clear
1:53 AM 25.0 °F - 21.9 °F 88% 30.27 in 9.0 mi Calm Calm - N/A   Clear
2:53 AM 19.0 °F - 16.0 °F 88% 30.27 in 7.0 mi Calm Calm - N/A   Clear
3:53 AM 19.9 °F - 17.1 °F 89% 30.26 in 7.0 mi Calm Calm - N/A   Clear
4:53 AM 18.0 °F - 16.0 °F 92% 30.25 in 8.0 mi Calm Calm - N/A   Clear
5:53 AM 19.0 °F - 16.0 °F 88% 30.25 in 5.0 mi Calm Calm - N/A   Clear
6:53 AM 21.0 °F - 19.0 °F 92% 30.26 in 7.0 mi Calm Calm - N/A   Clear
7:53 AM 17.1 °F - 14.0 °F 88% 30.28 in 9.0 mi Calm Calm - N/A   Clear
8:53 AM 23.0 °F 17.0 °F 21.0 °F 92% 30.27 in 5.0 mi ESE 4.6 mph - N/A   Clear
9:53 AM 28.9 °F - 26.1 °F 89% 30.26 in 8.0 mi Calm Calm - N/A   Clear
10:53 AM 35.1 °F 30.1 °F 28.0 °F 76% 30.24 in 10.0 mi SE 5.8 mph - N/A   Partly Cloudy
11:53 AM 42.8 °F 36.6 °F 28.4 °F 57% 30.17 in 10.0 mi South 11.5 mph - N/A   Clear
12:53 PM 46.9 °F - 28.0 °F 48% 30.19 in 10.0 mi South 11.5 mph 19.6 mph N/A   Clear
1:53 PM 51.1 °F - 27.0 °F 39% 30.16 in 10.0 mi SSE 11.5 mph 20.7 mph N/A   Scattered Clouds
2:53 PM 53.1 °F - 27.0 °F 37% 30.14 in 10.0 mi South 15.0 mph - N/A   Overcast
3:53 PM 53.1 °F - 27.0 °F 37% 30.11 in 10.0 mi SSE 17.3 mph 23.0 mph N/A   Mostly Cloudy
4:53 PM 53.1 °F - 28.0 °F 38% 30.11 in 10.0 mi SSE 12.7 mph - N/A   Mostly Cloudy
5:53 PM 51.1 °F - 27.0 °F 39% 30.10 in 10.0 mi South 15.0 mph - N/A   Mostly Cloudy
6:53 PM 46.9 °F - 28.0 °F 48% 30.12 in 10.0 mi SSE 11.5 mph - N/A   Clear
7:53 PM 46.0 °F 41.0 °F 28.9 °F 51% 30.15 in 10.0 mi South 10.4 mph - N/A   Mostly Cloudy
8:53 PM 44.1 °F 40.1 °F 30.0 °F 58% 30.14 in 10.0 mi SSE 6.9 mph - N/A   Scattered Clouds
9:53 PM 44.1 °F 40.8 °F 28.9 °F 55% 30.14 in 10.0 mi SE 5.8 mph - N/A   Overcast
10:53 PM 44.1 °F 40.1 °F 30.0 °F 58% 30.13 in 10.0 mi SSE 6.9 mph - N/A   Overcast
11:53 PM 44.1 °F 40.1 °F 30.0 °F 58% 30.12 in 10.0 mi SE 6.9 mph - N/A   Overcast